K5MJM Weather Reports


time (UTC)temp
C
wind
direction
speed
KPH
gust
KPH
rain 1hr
cm
rain 24hr
cm
rain mn
cm
humidity
%
barometer
mb
20260510060918 16 90 14.5 22.5 0.00 0.38 0.00 72 1016.1
20260510055919 16 113 12.9 20.9 0.00 0.38 0.00 73 1016.0
20260510054918 16 45 14.5 20.9 0.00 0.38 0.00 73 1015.8
20260510053918 16 68 6.4 12.9 0.00 0.38 0.00 73 1015.9
20260510052919 16 23 12.9 17.7 0.00 0.38 0.00 73 1015.3
20260510051939 16 23 20.9 33.8 0.03 0.38 0.00 74 1014.8
20260510050918 16 0 20.9 25.7 0.08 0.38 0.00 74 1014.9
20260510045917 17 0 11.3 19.3 0.23 0.38 0.38 74 1014.5
20260510044941 17 45 17.7 24.1 0.28 0.38 0.38 73 1013.0
20260510043918 17 90 20.9 27.4 0.36 0.38 0.38 73 1012.4
20260510042919 17 23 11.3 19.3 0.36 0.38 0.38 72 1014.2
20260510041937 18 0 12.9 17.7 0.33 0.36 0.36 71 1015.3
20260510040919 18 0 9.7 17.7 0.28 0.30 0.30 71 1014.9
20260510035918 18 315 19.3 24.1 0.13 0.15 0.15 68 1015.9
20260510034938 20 315 20.9 27.4 0.08 0.10 0.10 64 1015.4
20260510033917 23 293 22.5 29.0 0.00 0.03 0.03 55 1015.1
20260510032917 25 315 6.4 9.7 0.00 0.03 0.03 49 1012.1
20260510031920 25 113 6.4 11.3 0.00 0.03 0.03 46 1010.3
20260510030918 25 113 9.7 14.5 0.00 0.03 0.03 46 1009.7
20260510025938 25 113 14.5 17.7 0.00 0.03 0.03 45 1009.8
20260510024920 25 113 19.3 27.4 0.00 0.03 0.03 45 1009.6
20260510023938 25 135 14.5 19.3 0.00 0.03 0.03 45 1009.9
20260510022917 25 135 12.9 19.3 0.00 0.03 0.03 45 1010.2
20260510021917 25 135 16.1 24.1 0.00 0.03 0.03 45 1010.0
20260510020917 25 135 12.9 16.1 0.00 0.03 0.03 44 1010.0
20260510015919 25 135 12.9 17.7 0.00 0.03 0.03 44 1009.1
20260510014917 25 135 14.5 20.9 0.00 0.03 0.03 44 1008.6
20260510013919 25 135 19.3 25.7 0.00 0.03 0.03 44 1008.3
20260510012918 25 135 16.1 22.5 0.00 0.03 0.03 43 1008.5
20260510011919 25 158 9.7 12.9 0.00 0.03 0.03 41 1008.8
20260510010917 25 135 8.0 12.9 0.00 0.03 0.03 40 1008.6
20260510005919 26 135 11.3 16.1 0.00 0.03 0.03 40 1008.8
20260510004917 26 113 8.0 12.9 0.00 0.03 0.03 40 1008.9
20260510003917 26 135 6.4 11.3 0.00 0.03 0.03 39 1008.9
20260510002940 26 135 8.0 16.1 0.00 0.03 0.03 38 1009.0
20260510001918 27 135 11.3 17.7 0.00 0.03 0.03 38 1008.8
20260510000919 27 113 12.9 17.7 0.00 0.03 0.03 37 1008.7
20260509235917 27 135 11.3 17.7 0.00 0.03 0.03 37 1008.9
20260509234919 28 158 12.9 22.5 0.00 0.03 0.03 36 1008.8
20260509232919 29 135 14.5 25.7 0.00 0.03 0.03 34 1009.0
20260509231939 29 135 9.7 16.1 0.00 0.03 0.03 33 1009.1
20260509230919 30 113 16.1 22.5 0.00 0.03 0.03 31 1009.2
20260509225917 30 158 16.1 22.5 0.00 0.03 0.03 32 1009.3
20260509224918 30 90 17.7 24.1 0.00 0.03 0.03 32 1009.3
20260509223917 30 135 9.7 14.5 0.00 0.23 0.03 32 1009.6
20260509222919 30 135 11.3 16.1 0.00 0.43 0.03 31 1009.8
20260509221917 30 135 16.1 24.1 0.00 0.43 0.03 32 1009.8
20260509220919 31 135 16.1 17.7 0.00 0.43 0.03 30 1010.0
20260509220000 31 113 4.8 11.3 0.00 0.43 0.03 32 1010.0
20260509214920 31 158 9.7 14.5 0.00 0.43 0.03 32 1009.9
20260509213917 30 225 4.8 12.9 0.00 0.43 0.03 30 1009.9
20260509212917 30 158 9.7 16.1 0.00 0.43 0.03 29 1010.1
20260509211919 31 180 8.0 12.9 0.00 0.43 0.03 27 1010.2
20260509210917 30 203 6.4 11.3 0.00 0.43 0.03 28 1010.3
20260509205919 30 270 1.6 4.8 0.00 0.43 0.03 26 1010.5
20260509204939 30 0.0 1.6 0.00 0.43 0.03 27 1010.5
20260509203919 30 113 11.3 14.5 0.00 0.43 0.03 32 1010.7
20260509202939 30 0.0 1.6 0.00 0.43 0.03 27 1010.7
20260509201940 30 113 4.8 9.7 0.00 0.43 0.03 29 1010.9
20260509200919 30 225 3.2 12.9 0.00 0.43 0.03 30 1010.9
20260509195940 30 180 6.4 11.3 0.00 0.43 0.03 32 1011.1
20260509194938 28 0.0 0.0 0.00 0.43 0.03 31 1011.4
20260509193919 29 0.0 3.2 0.00 0.43 0.03 26 1011.5
20260509192939 29 158 11.3 16.1 0.00 0.43 0.03 30 1011.5
20260509191920 29 90 4.8 9.7 0.00 0.43 0.03 32 1011.7
20260509190920 29 45 1.6 6.4 0.00 0.43 0.03 33 1011.8
20260509185919 29 113 6.4 11.3 0.00 0.43 0.03 34 1011.9
20260509184919 28 0.0 0.0 0.00 0.43 0.03 36 1012.0
20260509183937 29 248 3.2 9.7 0.00 0.43 0.03 35 1012.1
20260509182939 28 113 6.4 12.9 0.00 0.43 0.03 38 1012.3
20260509181919 28 135 8.0 14.5 0.00 0.43 0.03 39 1012.4
20260509180919 28 113 8.0 12.9 0.00 0.43 0.03 40 1012.5
20260509175939 28 135 1.6 4.8 0.00 0.43 0.03 39 1012.7
20260509174920 28 90 1.6 4.8 0.00 0.43 0.03 39 1012.8
20260509173919 28 113 3.2 4.8 0.00 0.43 0.03 42 1013.0
20260509172939 27 113 9.7 14.5 0.00 0.43 0.03 43 1013.1
20260509171940 27 113 6.4 11.3 0.00 0.43 0.03 44 1013.3
20260509170919 27 180 4.8 17.7 0.00 0.43 0.03 43 1013.4
20260509165919 27 135 3.2 8.0 0.00 0.43 0.03 45 1013.4
20260509164919 27 180 11.3 14.5 0.00 0.43 0.03 44 1013.5
20260509163919 26 90 1.6 4.8 0.00 0.43 0.03 43 1013.6
20260509162919 26 203 1.6 9.7 0.00 0.43 0.03 43 1013.3
20260509161919 25 203 4.8 11.3 0.00 0.43 0.03 45 1013.4
20260509160919 25 158 9.7 14.5 0.00 0.43 0.03 48 1013.5
20260509155919 25 158 3.2 8.0 0.00 0.43 0.03 50 1013.4
20260509154919 25 158 4.8 11.3 0.00 0.43 0.03 48 1013.4
20260509153919 25 135 1.6 3.2 0.00 0.43 0.03 50 1013.1
20260509152919 24 113 9.7 17.7 0.00 0.43 0.03 50 1013.2
20260509151919 23 113 11.3 12.9 0.00 0.43 0.03 57 1013.2
20260509151000 22 0.0 0.0 0.00 0.43 0.03 66 1013.2
20260509145919 21 0.0 0.0 0.00 0.43 0.03 69 1013.2
20260509144940 21 0.0 0.0 0.00 0.43 0.03 69 1013.0
20260509143920 21 0.0 0.0 0.00 0.43 0.03 71 1012.9
20260509142919 21 0.0 0.0 0.00 0.43 0.03 74 1012.8
20260509141919 20 0.0 0.0 0.00 0.43 0.03 80 1012.9
20260509140940 19 0.0 0.0 0.00 0.43 0.03 87 1013.0
20260509135939 18 0.0 0.0 0.00 0.43 0.03 89 1012.9
20260509134919 17 0.0 0.0 0.00 0.43 0.03 89 1012.8
20260509133919 17 0.0 0.0 0.00 0.43 0.03 89 1012.7
20260509132919 16 0.0 0.0 0.00 0.43 0.03 89 1012.6
20260509131919 16 0.0 0.0 0.00 0.43 0.03 89 1012.4
20260509130939 15 0.0 0.0 0.00 0.43 0.03 89 1012.2
20260509125919 15 0.0 0.0 0.00 0.43 0.03 89 1012.2
20260509124919 15 0.0 0.0 0.00 0.43 0.03 89 1012.2
20260509123919 15 0.0 0.0 0.00 0.43 0.03 88 1012.2
20260509122919 14 0.0 0.0 0.00 0.43 0.03 89 1011.9
20260509121918 13 0.0 0.0 0.03 0.43 0.03 88 1011.8
20260509120918 13 0.0 0.0 0.03 0.43 0.03 88 1011.7
20260509115918 12 0.0 0.0 0.03 0.43 0.03 88 1011.7
20260509114918 12 0.0 0.0 0.03 0.43 0.03 87 1011.6
20260509113919 12 0.0 0.0 0.03 0.43 0.03 87 1011.6
20260509112919 12 0.0 0.0 0.03 0.43 0.03 86 1011.3
20260509111919 12 0.0 0.0 0.00 0.41 0.00 86 1011.2
20260509111000 12 0.0 0.0 0.00 0.41 0.00 86 1011.0
20260509105919 13 0.0 0.0 0.00 0.41 0.00 86 1010.9
20260509104919 13 0.0 0.0 0.00 0.41 0.00 86 1010.9
20260509103939 13 0.0 0.0 0.00 0.41 0.00 85 1011.1
20260509102919 13 0.0 0.0 0.00 0.41 0.00 85 1011.8
20260509101939 13 0.0 0.0 0.00 0.41 0.00 85 1011.9
20260509100918 13 0.0 0.0 0.00 0.41 0.00 84 1012.0
20260509095919 13 0.0 0.0 0.00 0.41 0.00 85 1012.3
20260509094919 13 0.0 0.0 0.00 0.41 0.00 85 1012.5
20260509093919 13 0.0 0.0 0.00 0.41 0.00 83 1012.6
20260509092939 13 0.0 0.0 0.00 0.41 0.00 83 1012.7
20260509091919 13 0.0 1.6 0.00 0.41 0.00 83 1012.7
20260509090918 13 0.0 0.0 0.00 0.41 0.00 81 1012.4
20260509085919 13 0.0 0.0 0.00 0.41 0.00 81 1012.4
20260509084919 13 0.0 0.0 0.00 0.41 0.00 80 1012.6
20260509083919 13 0.0 0.0 0.00 0.41 0.00 81 1012.4
20260509082919 13 0.0 0.0 0.00 0.41 0.00 80 1012.4
20260509081918 14 0.0 0.0 0.00 0.41 0.00 80 1012.4
20260509080918 13 0.0 0.0 0.00 0.41 0.00 79 1012.4
20260509075919 14 0.0 0.0 0.00 0.41 0.00 78 1012.5
20260509074919 14 0.0 0.0 0.00 0.41 0.00 78 1012.6
20260509073919 14 0.0 0.0 0.00 0.41 0.00 78 1012.6
20260509072918 14 0.0 0.0 0.00 0.41 0.00 78 1012.7
20260509071919 15 0.0 0.0 0.00 0.41 0.00 78 1012.8
20260509070918 15 0.0 0.0 0.00 0.41 0.00 78 1012.9
20260509065918 15 0.0 0.0 0.00 0.41 0.00 77 1012.8
20260509064918 15 0.0 0.0 0.00 0.41 0.00 78 1012.8
20260509063959 15 0.0 0.0 0.00 0.41 0.00 77 1012.9
20260509062918 15 0.0 1.6 0.00 0.41 0.00 76 1012.7
20260509061919 15 0.0 0.0 0.00 0.41 0.00 76 1013.0